Tracking 22459 objects as of 3-Mar-2021
HD Live streaming from Space Station
objects crossing your sky now

PAGEOS 1 DEB

Track PAGEOS 1 DEB now!
10-day predictions


NORAD ID: 2511
Int'l Code: 1966-056D
Perigee: 4,229.7 km
Apogee: 4,266.4 km
Inclination: 87.0 °
Period: 181.5 minutes
Semi major axis: 10619 km
RCS: 1.1173 m2 (large)
Launch date: June 24, 1966
Source: United States (US)
Launch site: AIR FORCE WESTERN TEST RANGE (AFWTR)

Note: This is SATELLITE DEBRIS
aabbcc
Your satellite tracking list
Your tracking list is empty




NASA's NSSDC Master Catalog

Two Line Element Set (TLE):
1  2511U 66056D   21062.34580712  .00000006  00000-0  41635-2 0  9990
2  2511  87.0265  33.7847 0017288 329.1651  30.8140  7.93365805584496
Source of the keplerian elements: AFSPC